Location: Overspoor
(51.4747°N, 5.6641°E)
Time: 12:32:52
(UTC+02:00)

ZACube-1 - Visible Passes

Search period start: 29 June 2022 00:00
Search period end: 09 July 2022 00:00
Orbit: 581 x 662 km, 97.6° (Epoch: 28 June)

Date Brightness Start Highest point End Pass type
(mag) Time Alt. Az. Time Alt. Az. Time Alt. Az.
01 Jul ? 04:13:30 10° ENE 04:15:37 13° E 04:17:45 10° ESE visible
02 Jul ? 04:30:28 10° NE 04:33:39 19° E 04:36:52 10° SE visible
06 Jul ? 04:06:51 10° ENE 04:08:25 12° E 04:10:00 10° ESE visible
07 Jul ? 04:23:31 10° NE 04:26:28 17° E 04:29:25 10° SE visible
08 Jul ? 04:40:47 10° NE 04:44:28 24° E 04:48:09 10° SE visible
